Regional Weather Roundup
Issued by NWS

Home | Current Version | Previous Version | Graphics & Text | Print | Product List | Glossary On
Versions: 1 2 3 4 5 6 7 8 9 10 11 12 13 14 15 16 17 18 19 20 21 22 23 24 25 26 27 28 29 30 31 32 33 34 35 36 37 38 39 40 41 42 43 44 45 46 47 48 49 50
000
ASUS43 KBIS 012320
RWRND

NORTH DAKOTA REGIONAL WEATHER ROUNDUP
NATIONAL WEATHER SERVICE BISMARCK ND
600 PM CDT MON SEP 01 2014

NOTE: "FAIR" INDICATES FEW OR NO CLOUDS BELOW 12,000 FEET WITH NO
SIGNIFICANT WEATHER AND/OR OBSTRUCTIONS TO VISIBILITY.


NDZ001>003-009>011-017-020000-
NORTHWEST NORTH DAKOTA

CITY           SKY/WX    TMP DP  RH WIND       PRES   REMARKS
WILLISTON      CLOUDY    65  44  46 W20       29.83R
MINOT          MOSUNNY   73  43  33 W7        29.78S
MINOT AFB      SUNNY     72  44  35 W14       29.77S
$$

NDZ018>021-031>035-040>046-020000-
SOUTHWEST NORTH DAKOTA

CITY           SKY/WX    TMP DP  RH WIND       PRES   REMARKS
BISMARCK       SUNNY     73  44  35 NW16      29.83R
DICKINSON      PTSUNNY   68  44  42 W10       29.86S
GARRISON         N/A     70  47  43 NW7       29.80F
HETTINGER ARPT PTSUNNY   64  49  57 N9        29.90R
$$

NDZ004>008-012>016-024-026-027-054-020000-
NORTHEAST NORTH DAKOTA

CITY           SKY/WX    TMP DP  RH WIND       PRES   REMARKS
GRAND FORKS    PTSUNNY   71  57  61 N8        29.73R
GRND FRKS AFB  MOSUNNY   70  53  54 N6        29.74R
DEVILS LAKE    MOSUNNY   72  52  49 NW10      29.74S
$$

NDZ022-023-025-028>030-036>039-047>053-020000-
SOUTHEAST NORTH DAKOTA

CITY           SKY/WX    TMP DP  RH WIND       PRES   REMARKS
FARGO          PTSUNNY   69  55  60 NE9       29.71R
JAMESTOWN      SUNNY     71  51  49 NW16G23   29.77R
$$




USA.gov is the U.S. government's official web portal to all federal, state and local government web resources and services.